DW3588 Weather Reports


Display with metric or nautical units.
time (UTC)temp
F
wind
direction
speed
MPH
gust
MPH
rain 1hr
in
rain 24hr
in
rain mn
in
humidity
%
barometer
mb
20260831024001 78 285 4.0 8.0 0.00 0.00 0.00 33 1009.3
20260831023459 78 273 6.0 14.0 0.00 0.00 0.00 33 1009.3
20260831022956 79 281 7.0 14.0 0.00 0.00 0.00 33 1009.3
20260831022456 79 279 6.0 13.0 0.00 0.00 0.00 33 1009.3
20260831021957 80 273 7.0 12.0 0.00 0.00 0.00 33 1009.2
20260831021457 80 265 7.0 13.0 0.00 0.00 0.00 32 1009.3
20260831021212 81 250 7.0 13.0 0.00 0.00 0.00 31 1009.3
20260831020456 81 261 7.0 13.0 0.00 0.00 0.00 31 1009.2
20260831015957 82 228 7.0 11.0 0.00 0.00 0.00 30 1009.2
20260831015457 83 264 6.0 12.0 0.00 0.00 0.00 29 1009.1
20260831014956 83 261 6.0 12.0 0.00 0.00 0.00 29 1009.1
20260831014454 84 234 6.0 11.0 0.00 0.00 0.00 29 1009.1
20260831014212 84 277 7.0 11.0 0.00 0.00 0.00 28 1009.1
20260831013449 85 245 7.0 13.0 0.00 0.00 0.00 28 1009.0
20260831012949 85 239 7.0 13.0 0.00 0.00 0.00 27 1009.0
20260831012449 86 246 6.0 12.0 0.00 0.00 0.00 28 1009.0
20260831011944 86 254 5.0 11.0 0.00 0.00 0.00 31 1009.0
20260831011443 86 236 4.0 9.0 0.00 0.00 0.00 32 1009.0
20260831010942 86 205 2.0 9.0 0.00 0.00 0.00 32 1009.0
20260831010443 86 186 1.0 5.0 0.00 0.00 0.00 36 1009.0
20260831005941 87 350 2.0 8.0 0.00 0.00 0.00 34 1009.1
20260831005443 87 351 2.0 8.0 0.00 0.00 0.00 34 1009.1
20260831005157 88 320 3.0 8.0 0.00 0.00 0.00 34 1009.1
20260831004440 87 298 3.0 8.0 0.00 0.00 0.00 34 1009.1
20260831003937 87 323 2.0 8.0 0.00 0.00 0.00 34 1009.1
20260831003438 87 317 2.0 8.0 0.00 0.00 0.00 35 1009.2
20260831002936 88 294 2.0 6.0 0.00 0.00 0.00 34 1009.2
20260831002438 88 267 2.0 6.0 0.00 0.00 0.00 35 1009.3
20260831001936 88 355 2.0 6.0 0.00 0.00 0.00 35 1009.3
20260831001437 88 277 2.0 7.0 0.00 0.00 0.00 36 1009.4
20260831000936 88 302 3.0 7.0 0.00 0.00 0.00 35 1009.3
20260831000436 89 321 3.0 8.0 0.00 0.00 0.00 35 1009.3
20260830235936 88 68 3.0 8.0 0.00 0.00 0.00 36 1009.4
20260830235432 88 321 2.0 8.0 0.00 0.00 0.00 37 1009.4
20260830234932 88 355 2.0 7.0 0.00 0.00 0.00 36 1009.5
20260830234429 88 309 2.0 8.0 0.00 0.00 0.00 36 1009.5
20260830233929 89 342 4.0 11.0 0.00 0.00 0.00 35 1009.5
20260830233655 88 355 5.0 11.0 0.00 0.00 0.00 35 1009.6
20260830232927 88 355 4.0 10.0 0.00 0.00 0.00 36 1009.6
20260830232425 88 311 4.0 10.0 0.00 0.00 0.00 36 1009.6
20260830231925 89 315 4.0 8.0 0.00 0.00 0.00 35 1009.7
20260830231644 89 313 4.0 10.0 0.00 0.00 0.00 36 1009.7
20260830231138 88 26 4.0 10.0 0.00 0.00 0.00 36 1009.7
20260830230638 88 311 3.0 9.0 0.00 0.00 0.00 36 1009.7
20260830230352 88 336 4.0 9.0 0.00 0.00 0.00 36 1009.8
20260830225417 89 313 4.0 8.0 0.00 0.00 0.00 36 1009.9
20260830224917 87 331 4.0 9.0 0.00 0.00 0.00 37 1009.9
20260830224415 88 346 4.0 9.0 0.00 0.00 0.00 37 1010.0
20260830223912 89 337 5.0 11.0 0.00 0.00 0.00 36 1010.0
20260830223411 89 43 5.0 13.0 0.00 0.00 0.00 35 1010.1
20260830222910 89 355 4.0 13.0 0.00 0.00 0.00 37 1010.2
20260830222638 89 310 4.0 10.0 0.00 0.00 0.00 36 1010.3
20260830221910 89 339 4.0 10.0 0.00 0.00 0.00 35 1010.2
20260830221629 89 317 5.0 10.0 0.00 0.00 0.00 36 1010.3
20260830220905 89 327 5.0 10.0 0.00 0.00 0.00 36 1010.4
20260830220844 88 5 6.0 11.0 0.00 0.00 0.00 37 1010.5
20260830215859 88 351 5.0 11.0 0.00 0.00 0.00 36 1010.5
20260830215357 88 308 4.0 11.0 0.00 0.00 0.00 36 1010.5
20260830214856 88 304 5.0 12.0 0.00 0.00 0.00 36 1010.7
20260830214356 87 323 5.0 12.0 0.00 0.00 0.00 37 1010.7
20260830213856 88 317 5.0 11.0 0.00 0.00 0.00 38 1010.8
20260830213357 87 0 5.0 10.0 0.00 0.00 0.00 37 1010.9
20260830212855 87 16 4.0 10.0 0.00 0.00 0.00 37 1011.0
20260830212354 87 315 5.0 11.0 0.00 0.00 0.00 37 1011.1
20260830211855 87 344 6.0 11.0 0.00 0.00 0.00 37 1011.1
20260830211356 87 342 5.0 11.0 0.00 0.00 0.00 37 1011.1
20260830210855 87 342 5.0 11.0 0.00 0.00 0.00 37 1011.2
20260830210352 86 350 4.0 10.0 0.00 0.00 0.00 38 1011.2
20260830205852 87 355 5.0 12.0 0.00 0.00 0.00 37 1011.3
20260830205346 86 339 4.0 12.0 0.00 0.00 0.00 37 1011.3
20260830204846 87 21 3.0 9.0 0.00 0.00 0.00 37 1011.3
20260830204344 86 57 2.0 8.0 0.00 0.00 0.00 36 1011.4
20260830203843 86 37 2.0 8.0 0.00 0.00 0.00 36 1011.4
20260830203341 86 25 3.0 10.0 0.00 0.00 0.00 35 1011.4
20260830202839 86 54 3.0 10.0 0.00 0.00 0.00 35 1011.5
20260830202338 87 347 2.0 9.0 0.00 0.00 0.00 34 1011.5
20260830201840 87 267 3.0 9.0 0.00 0.00 0.00 34 1011.6
20260830201337 85 299 3.0 9.0 0.00 0.00 0.00 35 1011.7
20260830200836 86 5 3.0 9.0 0.00 0.00 0.00 33 1011.8
20260830200336 85 331 2.0 9.0 0.00 0.00 0.00 35 1011.8
20260830195836 85 31 2.0 7.0 0.00 0.00 0.00 35 1011.9
20260830195600 85 53 3.0 10.0 0.00 0.00 0.00 33 1011.9
20260830194834 85 55 3.0 10.0 0.00 0.00 0.00 35 1011.9
20260830194331 84 65 3.0 8.0 0.00 0.00 0.00 36 1012.0
20260830193829 85 60 3.0 8.0 0.00 0.00 0.00 37 1012.1
20260830193328 85 115 3.0 9.0 0.00 0.00 0.00 37 1012.1
20260830192828 83 90 3.0 9.0 0.00 0.00 0.00 39 1012.1
20260830192327 83 5 3.0 8.0 0.00 0.00 0.00 40 1012.2
20260830191825 83 44 3.0 8.0 0.00 0.00 0.00 39 1012.2
20260830191324 83 17 3.0 8.0 0.00 0.00 0.00 38 1012.3
20260830190824 84 314 3.0 6.0 0.00 0.00 0.00 37 1012.3
20260830190323 83 26 3.0 7.0 0.00 0.00 0.00 37 1012.4
20260830185823 83 5 3.0 7.0 0.00 0.00 0.00 38 1012.4
20260830185322 83 82 3.0 7.0 0.00 0.00 0.00 36 1012.4
20260830184822 83 71 3.0 6.0 0.00 0.00 0.00 36 1012.5
20260830184541 82 340 3.0 6.0 0.00 0.00 0.00 36 1012.5
20260830183814 83 64 3.0 7.0 0.00 0.00 0.00 35 1012.6
20260830183541 83 5 1.0 7.0 0.00 0.00 0.00 36 1012.6
20260830182813 82 30 1.0 5.0 0.00 0.00 0.00 37 1012.6
20260830182312 81 35 2.0 5.0 0.00 0.00 0.00 36 1012.6
20260830181809 81 82 3.0 5.0 0.00 0.00 0.00 37 1012.6
20260830181308 81 11 3.0 6.0 0.00 0.00 0.00 37 1012.6
20260830180806 81 45 2.0 6.0 0.00 0.00 0.00 37 1012.7
20260830180306 80 65 1.0 5.0 0.00 0.00 0.00 38 1012.6
20260830175806 80 5 2.0 5.0 0.00 0.00 0.00 39 1012.6
20260830175305 79 69 2.0 5.0 0.00 0.00 0.00 39 1012.6
20260830175025 80 80 2.0 5.0 0.00 0.00 0.00 40 1012.7
20260830174520 78 5 2.0 5.0 0.00 0.00 0.00 41 1012.7
20260830173800 78 21 2.0 5.0 0.00 0.00 0.00 41 1012.7
20260830173253 78 103 1.0 4.0 0.00 0.00 0.00 42 1012.8
20260830172751 76 60 1.0 5.0 0.00 0.00 0.00 43 1012.8
20260830172252 76 9 2.0 5.0 0.00 0.00 0.00 43 1012.8
20260830172004 76 355 1.0 7.0 0.00 0.00 0.00 43 1012.8
20260830171243 76 78 2.0 7.0 0.00 0.00 0.00 44 1012.8
20260830170740 75 340 2.0 5.0 0.00 0.00 0.00 44 1012.8
20260830170238 75 101 1.0 5.0 0.00 0.00 0.00 45 1012.8
20260830165737 75 166 1.0 4.0 0.00 0.00 0.00 44 1012.8
20260830165236 74 166 0.0 4.0 0.00 0.00 0.00 46 1012.9
20260830164736 72 79 1.0 4.0 0.00 0.00 0.00 48 1012.8
20260830164457 72 80 1.0 4.0 0.00 0.00 0.00 48 1012.7
20260830163735 70 293 1.0 3.0 0.00 0.00 0.00 51 1012.6
20260830163456 69 173 1.0 3.0 0.00 0.00 0.00 53 1012.7
20260830162735 69 173 1.0 3.0 0.00 0.00 0.00 55 1012.8
20260830162454 68 188 1.0 3.0 0.00 0.00 0.00 55 1012.8
20260830161732 67 188 1.0 3.0 0.00 0.00 0.00 56 1012.8
20260830161230 67 49 1.0 3.0 0.00 0.00 0.00 56 1012.9
20260830160730 66 49 1.0 3.0 0.00 0.00 0.00 57 1013.0
20260830160227 66 59 1.0 4.0 0.00 0.00 0.00 58 1013.0
20260830155727 65 55 1.0 4.0 0.00 0.00 0.00 60 1012.9
20260830155448 65 76 1.0 3.0 0.00 0.00 0.00 62 1012.9
20260830154726 64 77 1.0 4.0 0.00 0.00 0.00 62 1013.0
20260830154449 64 71 2.0 4.0 0.00 0.00 0.00 62 1012.9
20260830153727 64 74 2.0 4.0 0.00 0.00 0.00 62 1012.9
20260830153227 64 65 2.0 4.0 0.00 0.00 0.00 62 1012.9
20260830152725 63 13 2.0 4.0 0.00 0.00 0.00 63 1012.8
20260830152226 62 11 2.0 4.0 0.00 0.00 0.00 66 1012.8
20260830151726 61 12 2.0 4.0 0.00 0.00 0.00 66 1012.7
20260830151447 61 28 2.0 4.0 0.00 0.00 0.00 68 1012.7
20260830150951 60 306 1.0 3.0 0.00 0.00 0.00 69 1012.6
20260830150225 60 302 1.0 4.0 0.00 0.00 0.00 69 1012.6
20260830145726 59 289 1.0 4.0 0.00 0.00 0.00 70 1012.6
20260830145221 59 275 1.0 4.0 0.00 0.00 0.00 70 1012.6
20260830144718 59 267 0.0 3.0 0.00 0.00 0.00 70 1012.6
20260830144218 59 267 0.0 1.0 0.00 0.00 0.00 70 1012.6
20260830143718 59 267 0.0 1.0 0.00 0.00 0.00 69 1012.5
20260830143218 59 267 0.0 1.0 0.00 0.00 0.00 70 1012.4
20260830142718 59 267 1.0 4.0 0.00 0.00 0.00 69 1012.4
20260830142216 58 267 1.0 4.0 0.00 0.00 0.00 69 1012.2
20260830141716 58 265 0.0 4.0 0.00 0.00 0.00 69 1012.2
20260830141209 58 247 0.0 2.0 0.00 0.00 0.00 69 1012.1
20260830140928 58 247 1.0 3.0 0.00 0.00 0.00 69 1012.1
20260830140206 58 247 1.0 3.0 0.00 0.00 0.00 69 1012.1
20260830135924 58 247 1.0 3.0 0.00 0.00 0.00 68 1012.0
20260830135204 58 247 1.0 4.0 0.00 0.00 0.00 68 1012.0
20260830134703 58 247 2.0 7.0 0.00 0.00 0.00 68 1011.9
20260830134202 58 246 2.0 7.0 0.00 0.00 0.00 69 1011.9
20260830133703 58 241 2.0 6.0 0.00 0.00 0.00 69 1011.8
20260830133149 58 266 3.0 6.0 0.00 0.00 0.00 69 1011.8
20260830132649 58 269 2.0 6.0 0.00 0.00 0.00 68 1011.7
20260830132141 58 231 2.0 4.0 0.00 0.00 0.00 68 1011.7
20260830131641 58 223 2.0 4.0 0.00 0.00 0.00 68 1011.6
20260830131138 58 221 2.0 4.0 0.00 0.00 0.00 68 1011.7
20260830130636 58 219 1.0 3.0 0.00 0.00 0.00 67 1011.5
20260830130136 58 218 0.0 2.0 0.00 0.00 0.00 67 1011.5
20260830125635 58 218 0.0 2.0 0.00 0.00 0.00 67 1011.5
20260830125401 58 218 0.0 1.0 0.00 0.00 0.00 67 1011.4
20260830124634 58 218 0.0 1.0 0.00 0.00 0.00 67 1011.4
20260830124133 58 218 0.0 1.0 0.00 0.00 0.00 67 1011.4
20260830123632 58 218 0.0 2.0 0.00 0.00 0.00 67 1011.4
20260830123614 58 218 1.0 3.0 0.00 0.00 0.00 66 1011.3
20260830122631 58 218 1.0 3.0 0.00 0.00 0.00 66 1011.3
20260830122616 59 218 1.0 3.0 0.00 0.00 0.00 65 1011.3
20260830121854 59 223 1.0 3.0 0.00 0.00 0.00 65 1011.2
20260830121128 59 218 0.0 3.0 0.00 0.00 0.00 66 1011.2
20260830120625 59 217 1.0 3.0 0.00 0.00 0.00 65 1011.2
20260830120120 59 217 0.0 3.0 0.00 0.00 0.00 65 1011.2
20260830115847 59 217 0.0 0.0 0.00 0.00 0.00 66 1011.2
20260830115118 59 217 0.0 2.0 0.00 0.00 0.00 66 1011.2
20260830114837 59 217 0.0 2.0 0.00 0.00 0.00 66 1011.2
20260830114341 59 217 0.0 0.0 0.00 0.00 0.00 65 1011.3
20260830113841 59 217 0.0 1.0 0.00 0.00 0.00 66 1011.3
20260830113120 59 217 0.0 1.0 0.00 0.00 0.00 65 1011.2
20260830112617 59 217 0.0 1.0 0.00 0.00 0.00 65 1011.2
20260830112337 60 217 0.0 3.0 0.00 0.00 0.00 65 1011.2
20260830111615 60 217 2.0 7.0 0.00 0.00 0.00 63 1011.2
20260830111115 61 223 2.0 7.0 0.00 0.00 0.00 61 1011.1
20260830110615 60 251 1.0 4.0 0.00 0.00 0.00 62 1011.2
20260830110114 60 271 1.0 2.0 0.00 0.00 0.00 62 1011.2
20260830105606 61 271 2.0 4.0 0.00 0.00 0.00 62 1011.3
20260830105104 61 271 3.0 6.0 0.00 0.00 0.00 62 1011.2
20260830104602 60 263 2.0 6.0 0.00 0.00 0.00 63 1011.2
20260830104101 60 215 1.0 3.0 0.00 0.00 0.00 64 1011.3
20260830103826 60 215 1.0 3.0 0.00 0.00 0.00 64 1011.2
20260830103331 60 217 1.0 3.0 0.00 0.00 0.00 64 1011.3
20260830102826 60 218 1.0 3.0 0.00 0.00 0.00 65 1011.3
20260830102101 61 219 2.0 6.0 0.00 0.00 0.00 63 1011.3
20260830101554 62 262 2.0 6.0 0.00 0.00 0.00 61 1011.2
20260830101313 61 223 2.0 4.0 0.00 0.00 0.00 63 1011.2
20260830100550 61 214 1.0 3.0 0.00 0.00 0.00 64 1011.3
20260830100050 61 214 0.0 3.0 0.00 0.00 0.00 64 1011.4
20260830095545 61 215 0.0 3.0 0.00 0.00 0.00 64 1011.4
20260830095046 61 214 0.0 3.0 0.00 0.00 0.00 63 1011.3
20260830094544 61 215 0.0 3.0 0.00 0.00 0.00 63 1011.3
20260830094041 61 215 1.0 3.0 0.00 0.00 0.00 63 1011.2
20260830093804 62 214 2.0 5.0 0.00 0.00 0.00 62 1011.3
20260830093303 63 251 2.0 5.0 0.00 0.00 0.00 60 1011.2
20260830092541 63 255 2.0 4.0 0.00 0.00 0.00 60 1011.2
20260830092041 63 221 1.0 3.0 0.00 0.00 0.00 60 1011.3
20260830091540 63 221 1.0 3.0 0.00 0.00 0.00 60 1011.3
20260830091038 63 215 1.0 3.0 0.00 0.00 0.00 60 1011.3
20260830090537 63 205 1.0 3.0 0.00 0.00 0.00 61 1011.3
20260830090256 63 205 1.0 3.0 0.00 0.00 0.00 61 1011.3
20260830085537 62 204 1.0 3.0 0.00 0.00 0.00 62 1011.3
20260830085037 62 205 2.0 5.0 0.00 0.00 0.00 61 1011.3
20260830084528 63 206 3.0 5.0 0.00 0.00 0.00 61 1011.3
20260830084024 63 192 1.0 4.0 0.00 0.00 0.00 60 1011.3
20260830083524 63 209 0.0 3.0 0.00 0.00 0.00 60 1011.4
20260830083021 64 211 0.0 3.0 0.00 0.00 0.00 59 1011.2
20260830082746 64 212 1.0 3.0 0.00 0.00 0.00 60 1011.3
20260830082018 64 213 2.0 4.0 0.00 0.00 0.00 59 1011.3
20260830081523 64 211 1.0 4.0 0.00 0.00 0.00 60 1011.3
20260830081019 64 203 0.0 3.0 0.00 0.00 0.00 61 1011.4
20260830080736 63 204 1.0 2.0 0.00 0.00 0.00 61 1011.4
20260830080015 64 205 1.0 3.0 0.00 0.00 0.00 61 1011.3
20260830075511 64 205 1.0 4.0 0.00 0.00 0.00 59 1011.4
20260830075010 65 209 1.0 4.0 0.00 0.00 0.00 58 1011.3
20260830074510 66 228 1.0 3.0 0.00 0.00 0.00 58 1011.4
20260830074011 66 227 1.0 3.0 0.00 0.00 0.00 58 1011.2
20260830073509 65 238 1.0 3.0 0.00 0.00 0.00 58 1011.2
20260830073007 66 234 2.0 5.0 0.00 0.00 0.00 57 1011.3
20260830072507 66 235 2.0 6.0 0.00 0.00 0.00 57 1011.3
20260830072224 66 236 3.0 7.0 0.00 0.00 0.00 57 1011.2
20260830071506 66 265 3.0 7.0 0.00 0.00 0.00 57 1011.2
20260830070958 66 238 3.0 5.0 0.00 0.00 0.00 57 1011.2
20260830070716 67 244 3.0 5.0 0.00 0.00 0.00 56 1011.2
20260830065953 67 233 2.0 5.0 0.00 0.00 0.00 56 1011.2
20260830065452 67 247 1.0 4.0 0.00 0.00 0.00 56 1011.3
20260830064952 67 250 2.0 5.0 0.00 0.00 0.00 56 1011.2
20260830064451 67 229 2.0 5.0 0.00 0.00 0.00 55 1011.3
20260830063949 67 224 2.0 4.0 0.00 0.00 0.00 56 1011.1
20260830063449 66 184 2.0 4.0 0.00 0.00 0.00 56 1011.3
20260830062949 66 200 1.0 4.0 0.00 0.00 0.00 56 1011.3
20260830062448 67 218 1.0 3.0 0.00 0.00 0.00 55 1011.3
20260830061948 67 223 1.0 3.0 0.00 0.00 0.00 55 1011.3
20260830061446 67 227 1.0 3.0 0.00 0.00 0.00 53 1011.3
20260830061206 68 288 1.0 4.0 0.00 0.00 0.00 54 1011.4
20260830060436 68 288 0.0 4.0 0.00 0.00 0.00 53 1011.3
20260830055933 68 52 0.0 3.0 0.00 0.00 0.00 53 1011.3
20260830055434 68 52 1.0 4.0 0.00 0.00 0.00 53 1011.3
20260830055413 68 52 2.0 4.0 0.00 0.00 0.00 53 1011.4
20260830054433 69 282 2.0 6.0 0.00 0.00 0.00 53 1011.4
20260830053931 69 277 2.0 6.0 0.00 0.00 0.00 52 1011.3
20260830053651 69 314 1.0 6.0 0.00 0.00 0.00 52 1011.4
20260830053152 69 350 0.0 3.0 0.00 0.00 0.00 50 1011.3
20260830052431 69 351 1.0 3.0 0.00 0.00 0.00 49 1011.4
20260830051928 69 351 1.0 3.0 0.00 0.00 0.00 49 1011.3
20260830051426 69 21 1.0 3.0 0.00 0.00 0.00 48 1011.3
20260830050926 70 22 1.0 11.0 0.00 0.00 0.00 48 1011.4
20260830050425 71 22 2.0 11.0 0.00 0.00 0.00 46 1011.4
20260830050415 71 242 4.0 13.0 0.00 0.00 0.00 44 1011.4
20260830045421 71 252 6.0 13.0 0.00 0.00 0.00 44 1011.1
20260830044918 71 214 7.0 13.0 0.00 0.00 0.00 44 1011.1
20260830044414 72 197 7.0 13.0 0.00 0.00 0.00 42 1011.1
20260830044139 72 227 6.0 11.0 0.00 0.00 0.00 42 1011.1
20260830043413 73 234 6.0 14.0 0.00 0.00 0.00 39 1011.0
20260830042914 73 228 6.0 14.0 0.00 0.00 0.00 38 1010.9
20260830042414 74 219 5.0 11.0 0.00 0.00 0.00 37 1011.0
20260830041911 74 238 5.0 9.0 0.00 0.00 0.00 36 1011.0
20260830041634 74 221 5.0 10.0 0.00 0.00 0.00 37 1011.1
20260830040909 73 223 5.0 11.0 0.00 0.00 0.00 38 1011.1
20260830040410 73 207 5.0 11.0 0.00 0.00 0.00 39 1010.9
20260830035910 73 253 6.0 10.0 0.00 0.00 0.00 40 1010.9
20260830035410 73 276 5.0 10.0 0.00 0.00 0.00 40 1011.0
20260830034910 73 267 3.0 8.0 0.00 0.00 0.00 40 1010.9
20260830034850 74 261 3.0 8.0 0.00 0.00 0.00 39 1010.9
20260830033908 74 286 2.0 7.0 0.00 0.00 0.00 40 1010.8
20260830033400 74 315 3.0 7.0 0.00 0.00 0.00 38 1010.7
20260830032900 74 351 2.0 7.0 0.00 0.00 0.00 40 1010.6
20260830032359 74 348 1.0 9.0 0.00 0.00 0.00 39 1010.5
20260830031857 74 289 2.0 9.0 0.00 0.00 0.00 37 1010.4
20260830031358 75 289 4.0 10.0 0.00 0.00 0.00 38 1010.3
20260830030854 76 260 6.0 10.0 0.00 0.00 0.00 38 1010.3
20260830030355 76 275 6.0 9.0 0.00 0.00 0.00 35 1010.3
20260830025853 76 274 6.0 9.0 0.00 0.00 0.00 34 1010.3
20260830025353 77 269 6.0 10.0 0.00 0.00 0.00 34 1010.3
20260830024852 77 267 6.0 10.0 0.00 0.00 0.00 34 1010.4
20260830024349 78 265 6.0 9.0 0.00 0.00 0.00 34 1010.4